STARLINK-1956 (47557 NORAD) Tracking and Keplerian Element Data

This shows tracking and keplerian element data for the satellite.

Feedback or suggestion? Click here.




ElementValue
Catalog47557
NameSTARLINK-1956
Epoch Orbit175
Epoch Day101.91668981
Epoch Year2021
RAAN169.6703
Inclination53.0529
Eccentricity0.0001203
Argument of Perigee58.873
Mean Anonmoly344.2088
Mean Motion15.06404634
Decay Rate-0.00015779
L11 47557U 21009K 21101.91668981 -.00015779 00000-0 -10426-2 0 9999
L22 47557 53.0529 169.6703 0001203 58.8730 344.2088 15.06404634 1758

Live tracking and technical data element details for STARLINK-1956 (NORAD 47557). STARLINK-1956 can be tracked NOW for your location showing map with azimuth and elevation plus other details from your city location.

Track the satellite on the map from your city or location and see movement details for azimuth, elevation, latitude, longitude, range, height, and movement on the map or in text.







IsCatalogInMostPopularTable: catalog: 47557, numindb: 14
Update: records affected: 1



GetName: 47557 STARLINK-1956

Hit Count: updated at: Tue, 13 Apr 2021 04:09:47 GMT